Date,TemperatureHighF,TemperatureAvgF,TemperatureLowF,DewpointHighF,DewpointAvgF,DewpointLowF,HumidityHigh,HumidityAvg,HumidityLow,PressureMaxIn,PressureMinIn,WindSpeedMaxMPH,WindSpeedAvgMPH,GustSpeedMaxMPH,PrecipitationSumIn
2013-1-1,16,10,-1,-100,-100,-100,0,0,100,0.00,40.00,0,-999,0,0.02
2013-1-2,15,2,-9,-100,-100,-100,0,0,100,0.00,40.00,0,-999,0,0.01
2013-1-3,19,-4,-15,-100,-100,-100,0,0,100,0.00,40.00,0,-999,0,0.00
2013-1-4,18,-2,-13,-100,-100,-100,0,0,100,0.00,40.00,0,-999,0,0.00
2013-1-5,22,0,-12,-100,-100,-100,0,0,100,0.00,40.00,0,-999,0,0.00
2013-1-6,18,4,-8,-100,-100,-100,0,0,100,0.00,40.00,0,-999,0,0.00
2013-1-7,19,8,-4,-100,-100,-100,0,0,100,0.00,40.00,0,-999,0,0.17
2013-1-8,33,25,19,-100,-100,-100,0,0,100,0.00,40.00,0,-999,0,0.15
2013-1-9,40,31,24,-100,-100,-100,0,0,100,0.00,40.00,0,-999,0,0.01
2013-1-10,33,28,17,-100,-100,-100,0,0,100,0.00,40.00,0,-999,0,0.10
2013-1-11,17,12,2,-100,-100,-100,0,0,100,0.00,40.00,0,-999,0,0.03
2013-1-12,9,-1,-9,-100,-100,-100,0,0,100,0.00,40.00,0,-999,0,0.01
2013-1-13,9,-5,-14,-100,-100,-100,0,0,100,0.00,40.00,0,-999,0,0.02
2013-1-14,4,-5,-18,-100,-100,-100,0,0,100,0.00,40.00,0,-999,0,0.04
2013-1-15,13,7,-1,-100,-100,-100,0,0,100,0.00,40.00,0,-999,0,0.03
2013-1-16,19,8,-3,-100,-100,-100,0,0,100,0.00,40.00,0,-999,0,0.00
2013-1-17,20,1,-12,-100,-100,-100,0,0,100,0.00,40.00,0,-999,0,0.01
2013-1-18,26,5,-9,-100,-100,-100,0,0,100,0.00,40.00,0,-999,0,0.00
2013-1-19,30,8,-8,-100,-100,-100,0,0,100,0.00,40.00,0,-999,0,0.01
2013-1-20,33,12,-1,-100,-100,-100,0,0,100,0.00,40.00,0,-999,0,0.00
2013-1-21,31,11,-4,-100,-100,-100,0,0,100,0.00,40.00,0,-999,0,0.00
2013-1-22,31,11,-8,-100,-100,-100,0,0,100,0.00,40.00,0,-999,0,0.00
2013-1-23,26,10,-2,-100,-100,-100,0,0,100,0.00,40.00,0,-999,0,0.00
2013-1-24,36,25,9,-100,-100,-100,0,0,100,0.00,40.00,0,-999,0,0.16
2013-1-25,40,30,20,-100,-100,-100,0,0,100,0.00,40.00,0,-999,0,0.01
2013-1-26,40,35,31,-100,-100,-100,0,0,100,0.00,40.00,0,-999,0,0.05
2013-1-27,35,31,22,-100,-100,-100,0,0,100,0.00,40.00,0,-999,0,0.42
2013-1-28,22,16,6,-100,-100,-100,0,0,100,0.00,40.00,0,-999,0,0.07
2013-1-29,25,14,7,-100,-100,-100,0,0,100,0.00,40.00,0,-999,0,0.06
2013-1-30,31,23,11,-100,-100,-100,0,0,100,0.00,40.00,0,-999,0,0.09
2013-1-31,34,30,27,-100,-100,-100,0,0,100,0.00,40.00,0,-999,0,0.09
2013-2-1,35,28,12,-100,-100,-100,0,0,100,0.00,40.00,0,-999,0,0.15
2013-2-2,35,19,-4,-100,-100,-100,0,0,100,0.00,40.00,0,-999,0,0.04
2013-2-3,32,20,10,-100,-100,-100,0,0,100,0.00,40.00,0,-999,0,0.02
2013-2-4,35,20,9,-100,-100,-100,0,0,100,0.00,40.00,0,-999,0,0.00
2013-2-5,38,28,19,-100,-100,-100,0,0,100,0.00,40.00,0,-999,0,0.01
2013-2-6,33,23,10,-100,-100,-100,0,0,100,0.00,40.00,0,-999,0,0.01
2013-2-7,30,16,4,-100,-100,-100,0,0,100,0.00,40.00,0,-999,0,0.00
2013-2-8,32,18,7,-100,-100,-100,0,0,100,0.00,40.00,0,-999,0,0.00
2013-2-9,38,26,14,-100,-100,-100,0,0,100,0.00,40.00,0,-999,0,0.01
2013-2-10,25,20,6,-100,-100,-100,0,0,100,0.00,40.00,0,-999,0,0.01
2013-2-11,20,4,-13,-100,-100,-100,0,0,100,0.00,40.00,0,-999,0,0.01
2013-2-12,25,13,-5,-100,-100,-100,0,0,100,0.00,40.00,0,-999,0,0.01
2013-2-13,33,26,19,-100,-100,-100,0,0,100,0.00,40.00,0,-999,0,0.11
2013-2-14,33,26,20,-100,-100,-100,0,0,100,0.00,40.00,0,-999,0,0.09
2013-2-15,38,26,14,-100,-100,-100,0,0,100,0.00,40.00,0,-999,0,0.00
2013-2-16,40,25,11,-100,-100,-100,0,0,100,0.00,40.00,0,-999,0,0.00
2013-2-17,31,24,16,-100,-100,-100,0,0,100,0.00,40.00,0,-999,0,0.05
2013-2-18,31,18,9,-100,-100,-100,0,0,100,0.00,40.00,0,-999,0,0.04
2013-2-19,32,13,-4,-100,-100,-100,0,0,100,0.00,40.00,0,-999,0,0.01
2013-2-20,34,18,2,-100,-100,-100,0,0,100,0.00,40.00,0,-999,0,0.01
2013-2-21,31,22,9,-100,-100,-100,0,0,100,0.00,40.00,0,-999,0,0.01
2013-2-22,27,17,7,-100,-100,-100,0,0,100,0.00,40.00,0,-999,0,0.07
2013-2-23,29,22,16,-100,-100,-100,0,0,100,0.00,40.00,0,-999,0,0.29
2013-2-24,32,18,3,-100,-100,-100,0,0,100,0.00,40.00,0,-999,0,0.01
2013-2-25,23,10,-7,-100,-100,-100,0,0,100,0.00,40.00,0,-999,0,0.04
2013-2-26,28,13,2,-100,-100,-100,0,0,100,0.00,40.00,0,-999,0,0.05
2013-2-27,30,11,-6,-100,-100,-100,0,0,100,0.00,40.00,0,-999,0,0.01
2013-2-28,28,15,-2,-100,-100,-100,0,0,100,0.00,40.00,0,-999,0,0.04
2013-3-1,39,29,21,-100,-100,-100,0,0,100,0.00,40.00,0,-999,0,0.02
2013-3-2,45,30,19,-100,-100,-100,0,0,100,0.00,40.00,0,-999,0,0.01
2013-3-3,38,33,21,-100,-100,-100,0,0,100,0.00,40.00,0,-999,0,0.54
2013-3-4,25,16,3,-100,-100,-100,0,0,100,0.00,40.00,0,-999,0,0.03
2013-3-5,28,8,-15,-100,-100,-100,0,0,100,0.00,40.00,0,-999,0,0.01
2013-3-6,37,20,1,-100,-100,-100,0,0,100,0.00,40.00,0,-999,0,0.17
2013-3-7,38,27,13,-100,-100,-100,0,0,100,0.00,40.00,0,-999,0,0.06
2013-3-8,40,29,20,-100,-100,-100,0,0,100,0.00,40.00,0,-999,0,0.04
2013-3-9,38,28,16,-100,-100,-100,0,0,100,0.00,40.00,0,-999,0,0.01
2013-3-10,41,26,5,-100,-100,-100,0,0,100,0.00,40.00,0,-999,0,0.02
2013-3-11,39,31,23,-100,-100,-100,0,0,100,0.00,40.00,0,-999,0,0.10
2013-3-12,45,24,6,-100,-100,-100,0,0,100,0.00,40.00,0,-999,0,0.03
2013-3-13,52,37,24,-100,-100,-100,0,0,100,0.00,40.00,0,-999,0,0.00
2013-3-14,57,38,23,-100,-100,-100,0,0,100,0.00,40.00,0,-999,0,0.01
2013-3-15,51,44,34,-100,-100,-100,0,0,100,0.00,40.00,0,-999,0,0.01
2013-3-16,47,37,27,-100,-100,-100,0,0,100,0.00,40.00,0,-999,0,0.02
2013-3-17,39,27,22,-100,-100,-100,0,0,100,0.00,40.00,0,-999,0,0.45
2013-3-18,28,23,14,-100,-100,-100,0,0,100,0.00,40.00,0,-999,0,0.15
2013-3-19,41,26,13,-100,-100,-100,0,0,100,0.00,40.00,0,-999,0,0.02
2013-3-20,36,24,11,-100,-100,-100,0,0,100,0.00,40.00,0,-999,0,0.30
2013-3-21,35,28,20,-100,-100,-100,0,0,100,0.00,40.00,0,-999,0,0.46
2013-3-22,29,20,10,-100,-100,-100,0,0,100,0.00,40.00,0,-999,0,0.05
2013-3-23,25,10,-7,-100,-100,-100,0,0,100,0.00,40.00,0,-999,0,0.01
2013-3-24,26,12,-5,-100,-100,-100,0,0,100,0.00,40.00,0,-999,0,0.01
2013-3-25,32,10,-13,-100,-100,-100,0,0,100,0.00,40.00,0,-999,0,0.01
2013-3-26,38,22,7,-100,-100,-100,0,0,100,0.00,40.00,0,-999,0,0.01
2013-3-27,43,33,27,-100,-100,-100,0,0,100,0.00,40.00,0,-999,0,0.01
2013-3-28,53,36,15,-100,-100,-100,0,0,100,0.00,40.00,0,-999,0,0.01
2013-3-29,48,36,26,-100,-100,-100,0,0,100,0.00,40.00,0,-999,0,0.05
2013-3-30,51,39,28,-100,-100,-100,0,0,100,0.00,40.00,0,-999,0,0.15
2013-3-31,57,35,18,-100,-100,-100,0,0,100,0.00,40.00,0,-999,0,0.01
2013-4-1,54,38,21,-100,-100,-100,0,0,100,0.00,40.00,0,-999,0,0.02
2013-4-2,57,40,25,-100,-100,-100,0,0,100,0.00,40.00,0,-999,0,0.00
2013-4-3,56,37,24,-100,-100,-100,0,0,100,0.00,40.00,0,-999,0,0.00
2013-4-4,58,42,29,-100,-100,-100,0,0,100,0.00,40.00,0,-999,0,0.00
2013-4-5,45,39,34,-100,-100,-100,0,0,100,0.00,40.00,0,-999,0,0.27
2013-4-6,44,35,29,-100,-100,-100,0,0,100,0.00,40.00,0,-999,0,0.13
2013-4-7,41,35,30,-100,-100,-100,0,0,100,0.00,40.00,0,-999,0,0.28
2013-4-8,31,28,22,-100,-100,-100,0,0,100,0.00,40.00,0,-999,0,0.13
2013-4-9,37,26,16,-100,-100,-100,0,0,100,0.00,40.00,0,-999,0,0.01
2013-4-10,46,30,13,-100,-100,-100,0,0,100,0.00,40.00,0,-999,0,0.01
2013-4-11,48,39,31,-100,-100,-100,0,0,100,0.00,40.00,0,-999,0,0.12
2013-4-12,50,36,25,-100,-100,-100,0,0,100,0.00,40.00,0,-999,0,0.09
2013-4-13,43,34,24,-100,-100,-100,0,0,100,0.00,40.00,0,-999,0,0.51
2013-4-14,37,27,19,-100,-100,-100,0,0,100,0.00,40.00,0,-999,0,0.05
2013-4-15,36,24,16,-100,-100,-100,0,0,100,0.00,40.00,0,-999,0,0.10
2013-4-16,31,24,18,-100,-100,-100,0,0,100,0.00,40.00,0,-999,0,0.03
2013-4-17,33,21,7,-100,-100,-100,0,0,100,0.00,40.00,0,-999,0,0.00
2013-4-18,39,24,7,-100,-100,-100,0,0,100,0.00,40.00,0,-999,0,0.01
2013-4-19,42,33,24,-100,-100,-100,0,0,100,0.00,40.00,0,-999,0,0.15
2013-4-20,43,36,31,-100,-100,-100,0,0,100,0.00,40.00,0,-999,0,0.37
2013-4-21,46,36,23,-100,-100,-100,0,0,100,0.00,40.00,0,-999,0,0.05
2013-4-22,35,28,18,-100,-100,-100,0,0,100,0.00,40.00,0,-999,0,0.11
2013-4-23,40,25,6,-100,-100,-100,0,0,100,0.00,40.00,0,-999,0,0.01
2013-4-24,48,33,17,-100,-100,-100,0,0,100,0.00,40.00,0,-999,0,0.00
2013-4-25,54,36,19,-100,-100,-100,0,0,100,0.00,40.00,0,-999,0,0.01
2013-4-26,60,40,23,-100,-100,-100,0,0,100,0.00,40.00,0,-999,0,0.01
2013-4-27,62,43,26,-100,-100,-100,0,0,100,0.00,40.00,0,-999,0,0.01
2013-4-28,53,46,34,-100,-100,-100,0,0,100,0.00,40.00,0,-999,0,0.01
2013-4-29,50,44,33,-100,-100,-100,0,0,100,0.00,40.00,0,-999,0,0.01
2013-4-30,41,36,31,-100,-100,-100,0,0,100,0.00,40.00,0,-999,0,0.01
2013-5-1,40,30,25,-100,-100,-100,0,0,100,0.00,40.00,0,-999,0,0.25
2013-5-2,52,33,16,-100,-100,-100,0,0,100,0.00,40.00,0,-999,0,0.01
2013-5-3,57,38,24,-100,-100,-100,0,0,100,0.00,40.00,0,-999,0,0.02
2013-5-4,49,41,35,-100,-100,-100,0,0,100,0.00,40.00,0,-999,0,0.05
2013-5-5,59,43,33,-100,-100,-100,0,0,100,0.00,40.00,0,-999,0,0.48
2013-5-6,64,45,30,-100,-100,-100,0,0,100,0.00,40.00,0,-999,0,0.47
2013-5-7,62,45,32,-100,-100,-100,0,0,100,0.00,40.00,0,-999,0,0.01
2013-5-8,65,47,32,-100,-100,-100,0,0,100,0.00,40.00,0,-999,0,0.01
2013-5-9,64,46,30,-100,-100,-100,0,0,100,0.00,40.00,0,-999,0,0.01
2013-5-10,66,48,32,-100,-100,-100,0,0,100,0.00,40.00,0,-999,0,0.01
2013-5-11,67,49,32,-100,-100,-100,0,0,100,0.00,40.00,0,-999,0,0.01
2013-5-12,74,54,36,-100,-100,-100,0,0,100,0.00,40.00,0,-999,0,0.01
2013-5-13,74,58,39,-100,-100,-100,0,0,100,0.00,40.00,0,-999,0,0.00
2013-5-14,71,59,39,-100,-100,-100,0,0,100,0.00,40.00,0,-999,0,0.00
2013-5-15,71,56,38,-100,-100,-100,0,0,100,0.00,40.00,0,-999,0,0.00
2013-5-16,59,50,43,-100,-100,-100,0,0,100,0.00,40.00,0,-999,0,0.32
2013-5-17,52,47,44,-100,-100,-100,0,0,100,0.00,40.00,0,-999,0,0.39
2013-5-18,47,43,41,-100,-100,-100,0,0,100,0.00,40.00,0,-999,0,0.52
2013-5-19,48,43,39,-100,-100,-100,0,0,100,0.00,40.00,0,-999,0,0.09
2013-5-20,55,47,38,-100,-100,-100,0,0,100,0.00,40.00,0,-999,0,0.02
2013-5-21,61,50,32,-100,-100,-100,0,0,100,0.00,40.00,0,-999,0,0.01
2013-5-22,66,52,42,-100,-100,-100,0,0,100,0.00,40.00,0,-999,0,0.02
2013-5-23,62,48,37,-100,-100,-100,0,0,100,0.00,40.00,0,-999,0,0.03
2013-5-24,60,49,37,-100,-100,-100,0,0,100,0.00,40.00,0,-999,0,0.01
2013-5-25,67,47,30,-100,-100,-100,0,0,100,0.00,40.00,0,-999,0,0.01
2013-5-26,65,50,36,-100,-100,-100,0,0,100,0.00,40.00,0,-999,0,0.00
2013-5-27,59,49,40,-100,-100,-100,0,0,100,0.00,40.00,0,-999,0,0.09
2013-5-28,54,47,41,-100,-100,-100,0,0,100,0.00,40.00,0,-999,0,0.04
2013-5-29,50,44,41,-100,-100,-100,0,0,100,0.00,40.00,0,-999,0,0.23
2013-5-30,41,40,39,-100,-100,-100,0,0,100,0.00,40.00,0,-999,0,0.19
2013-5-31,55,50,43,-100,-100,-100,0,0,100,0.00,40.00,0,-999,0,0.00
2013-6-1,67,48,30,-100,-100,-100,0,0,100,0.00,40.00,0,-999,0,0.00
2013-6-2,71,55,37,-100,-100,-100,0,0,100,0.00,40.00,0,-999,0,0.02
2013-6-3,59,50,41,-100,-100,-100,0,0,100,0.00,40.00,0,-999,0,0.01
2013-6-4,62,50,40,-100,-100,-100,0,0,100,0.00,40.00,0,-999,0,0.01
2013-6-5,68,51,32,-100,-100,-100,0,0,100,0.00,40.00,0,-999,0,0.00
2013-6-6,74,56,38,-100,-100,-100,0,0,100,0.00,40.00,0,-999,0,0.00
2013-6-7,74,58,41,-100,-100,-100,0,0,100,0.00,40.00,0,-999,0,0.02
2013-6-8,71,61,51,-100,-100,-100,0,0,100,0.00,40.00,0,-999,0,0.02
2013-6-9,78,61,40,-100,-100,-100,0,0,100,0.00,40.00,0,-999,0,0.01
2013-6-10,82,71,54,-100,-100,-100,0,0,100,0.00,40.00,0,-999,0,0.04
2013-6-11,71,59,43,-100,-100,-100,0,0,100,0.00,40.00,0,-999,0,0.00
2013-6-12,63,54,47,-100,-100,-100,0,0,100,0.00,40.00,0,-999,0,0.05
2013-6-13,72,54,43,-100,-100,-100,0,0,100,0.00,40.00,0,-999,0,0.08
2013-6-14,58,47,36,-100,-100,-100,0,0,100,0.00,40.00,0,-999,0,0.05
2013-6-15,71,51,31,-100,-100,-100,0,0,100,0.00,40.00,0,-999,0,0.02
2013-6-16,77,53,36,-100,-100,-100,0,0,100,0.00,40.00,0,-999,0,0.00
2013-6-17,80,59,41,-100,-100,-100,0,0,100,0.00,40.00,0,-999,0,0.00
2013-6-18,80,62,43,-100,-100,-100,0,0,100,0.00,40.00,0,-999,0,0.09
2013-6-19,73,57,45,-100,-100,-100,0,0,100,0.00,40.00,0,-999,0,0.02
2013-6-20,57,45,34,-100,-100,-100,0,0,100,0.00,40.00,0,-999,0,0.00
2013-6-22,62,56,45,-100,-100,-100,0,0,100,0.00,40.00,0,-999,0,0.00
2013-6-23,72,54,34,-100,-100,-100,0,0,100,0.00,40.00,0,-999,0,0.00
2013-6-24,74,58,40,-100,-100,-100,0,0,100,0.00,40.00,0,-999,0,0.03
2013-6-25,65,56,50,-100,-100,-100,0,0,100,0.00,40.00,0,-999,0,0.12
2013-6-26,73,60,49,-100,-100,-100,0,0,100,0.00,40.00,0,-999,0,0.07
2013-6-27,83,62,46,-100,-100,-100,0,0,100,0.00,40.00,0,-999,0,0.00
2013-6-28,90,67,46,-100,-100,-100,0,0,100,0.00,40.00,0,-999,0,0.00
2013-6-29,89,66,49,-100,-100,-100,0,0,100,0.00,40.00,0,-999,0,0.01
2013-6-30,85,70,53,-100,-100,-100,0,0,100,0.00,40.00,0,-999,0,0.00
2013-7-1,87,68,51,-100,-100,-100,0,0,100,0.00,40.00,0,-999,0,0.00
2013-7-2,87,68,51,-100,-100,-100,0,0,100,0.00,40.00,0,-999,0,0.00
2013-7-3,86,70,53,-100,-100,-100,0,0,100,0.00,40.00,0,-999,0,0.00
2013-7-4,83,67,55,-100,-100,-100,0,0,100,0.00,40.00,0,-999,0,0.02
2013-7-5,80,65,54,-100,-100,-100,0,0,100,0.00,40.00,0,-999,0,0.05
2013-7-6,76,56,47,-100,-100,-100,0,0,100,0.00,40.00,0,-999,0,0.03
2013-7-7,79,60,44,-100,-100,-100,0,0,100,0.00,40.00,0,-999,0,0.01
2013-7-8,81,59,46,-100,-100,-100,0,0,100,0.00,40.00,0,-999,0,0.00
2013-7-9,82,66,47,-100,-100,-100,0,0,100,0.00,40.00,0,-999,0,0.00
2013-7-10,87,64,43,-100,-100,-100,0,0,100,0.00,40.00,0,-999,0,0.00
2013-7-11,78,62,47,-100,-100,-100,0,0,100,0.00,40.00,0,-999,0,0.02
2013-7-12,76,61,48,-100,-100,-100,0,0,100,0.00,40.00,0,-999,0,0.02
2013-7-13,74,61,45,-100,-100,-100,0,0,100,0.00,40.00,0,-999,0,0.03
2013-7-14,81,64,46,-100,-100,-100,0,0,100,0.00,40.00,0,-999,0,0.03
2013-7-15,83,65,45,-100,-100,-100,0,0,100,0.00,40.00,0,-999,0,0.00
2013-7-16,76,64,52,-100,-100,-100,0,0,100,0.00,40.00,0,-999,0,0.03
2013-7-17,88,68,56,-100,-100,-100,0,0,100,0.00,40.00,0,-999,0,0.02
2013-7-18,84,71,52,-100,-100,-100,0,0,100,0.00,40.00,0,-999,0,0.00
2013-7-19,87,64,45,-100,-100,-100,0,0,100,0.00,40.00,0,-999,0,0.00
2013-7-20,85,66,45,-100,-100,-100,0,0,100,0.00,40.00,0,-999,0,0.00
2013-7-21,85,66,45,-100,-100,-100,0,0,100,0.00,40.00,0,-999,0,0.00
2013-7-22,86,63,42,-100,-100,-100,0,0,100,0.00,40.00,0,-999,0,0.00
2013-7-23,87,64,43,-100,-100,-100,0,0,100,0.00,40.00,0,-999,0,0.01
2013-7-24,82,67,47,-100,-100,-100,0,0,100,0.00,40.00,0,-999,0,0.00
2013-7-25,85,66,46,-100,-100,-100,0,0,100,0.00,40.00,0,-999,0,0.02
2013-7-26,86,67,49,-100,-100,-100,0,0,100,0.00,40.00,0,-999,0,0.00
2013-7-27,68,61,54,-100,-100,-100,0,0,100,0.00,40.00,0,-999,0,0.05
2013-7-28,76,58,45,-100,-100,-100,0,0,100,0.00,40.00,0,-999,0,0.01
2013-7-29,73,55,43,-100,-100,-100,0,0,100,0.00,40.00,0,-999,0,0.11
2013-7-30,79,60,45,-100,-100,-100,0,0,100,0.00,40.00,0,-999,0,0.09
2013-7-31,80,60,43,-100,-100,-100,0,0,100,0.00,40.00,0,-999,0,0.03
2013-8-1,84,69,49,-100,-100,-100,0,0,100,0.00,40.00,0,-999,0,0.03
2013-8-2,76,62,46,-100,-100,-100,0,0,100,0.00,40.00,0,-999,0,0.01
2013-8-3,80,61,39,-100,-100,-100,0,0,100,0.00,40.00,0,-999,0,0.01
2013-8-4,84,63,43,-100,-100,-100,0,0,100,0.00,40.00,0,-999,0,0.01
2013-8-5,84,63,41,-100,-100,-100,0,0,100,0.00,40.00,0,-999,0,0.01
2013-8-6,81,65,45,-100,-100,-100,0,0,100,0.00,40.00,0,-999,0,0.01
2013-8-7,82,64,43,-100,-100,-100,0,0,100,0.00,40.00,0,-999,0,0.02
2013-8-8,84,61,43,-100,-100,-100,0,0,100,0.00,40.00,0,-999,0,0.01
2013-8-9,80,64,50,-100,-100,-100,0,0,100,0.00,40.00,0,-999,0,0.05
2013-8-10,81,66,48,-100,-100,-100,0,0,100,0.00,40.00,0,-999,0,0.02
2013-8-11,82,63,45,-100,-100,-100,0,0,100,0.00,40.00,0,-999,0,0.02
2013-8-16,88,64,40,-100,-100,-100,0,0,100,0.00,40.00,0,-999,0,0.01
2013-8-17,86,66,42,-100,-100,-100,0,0,100,0.00,40.00,0,-999,0,0.01
2013-8-18,86,67,50,-100,-100,-100,0,0,100,0.00,40.00,0,-999,0,0.02
2013-8-19,87,64,43,-100,-100,-100,0,0,100,0.00,40.00,0,-999,0,0.01
2013-8-20,86,68,54,-100,-100,-100,0,0,100,0.00,40.00,0,-999,0,0.01
2013-8-21,79,62,50,-100,-100,-100,0,0,100,0.00,40.00,0,-999,0,0.00
2013-8-22,77,62,51,-100,-100,-100,0,0,100,0.00,40.00,0,-999,0,0.00
2013-8-23,78,61,50,-100,-100,-100,0,0,100,0.00,40.00,0,-999,0,0.34
2013-8-24,77,60,50,-100,-100,-100,0,0,100,0.00,40.00,0,-999,0,0.03
2013-8-25,79,63,50,-100,-100,-100,0,0,100,0.00,40.00,0,-999,0,0.02
2013-8-26,77,62,52,-100,-100,-100,0,0,100,0.00,40.00,0,-999,0,0.05
2013-8-27,72,55,48,-100,-100,-100,0,0,100,0.00,40.00,0,-999,0,0.04
2013-9-23,59,48,40,-100,-100,-100,0,0,100,0.00,40.00,0,-999,0,0.00
2013-9-24,66,47,33,-100,-100,-100,0,0,100,0.00,40.00,0,-999,0,0.00
2013-9-25,47,40,34,-100,-100,-100,0,0,100,0.00,40.00,0,-999,0,0.81
2013-9-26,43,37,32,-100,-100,-100,0,0,100,0.00,40.00,0,-999,0,0.06
2013-9-27,42,37,34,-100,-100,-100,0,0,100,0.00,40.00,0,-999,0,0.24
2013-9-28,49,42,37,-100,-100,-100,0,0,100,0.00,40.00,0,-999,0,0.01
2013-9-29,52,48,43,-100,-100,-100,0,0,100,0.00,40.00,0,-999,0,0.01
2013-9-30,55,50,46,-100,-100,-100,0,0,100,0.00,40.00,0,-999,0,0.24
2013-10-2,55,44,36,-100,-100,-100,0,0,100,0.00,40.00,0,-999,0,0.11
2013-10-3,39,34,30,-100,-100,-100,0,0,100,0.00,40.00,0,-999,0,0.45
2013-10-4,40,31,27,-100,-100,-100,0,0,100,0.00,40.00,0,-999,0,0.11
2013-10-5,49,31,20,-100,-100,-100,0,0,100,0.00,40.00,0,-999,0,0.01
2013-10-6,58,37,25,-100,-100,-100,0,0,100,0.00,40.00,0,-999,0,0.00
2013-10-7,65,43,25,-100,-100,-100,0,0,100,0.00,40.00,0,-999,0,0.00
2013-10-8,52,40,32,-100,-100,-100,0,0,100,0.00,40.00,0,-999,0,0.00
2013-12-5,6,-7,-17,-100,-100,-100,0,0,100,0.00,40.00,0,-999,0,0.01
2013-12-6,2,-8,-19,-100,-100,-100,0,0,100,0.00,40.00,0,-999,0,0.02
2013-12-7,10,2,-5,-100,-100,-100,0,0,100,0.00,40.00,0,-999,0,0.05
2013-12-8,8,-1,-9,-100,-100,-100,0,0,100,0.00,40.00,0,-999,0,0.01
2013-12-9,4,-5,-18,-100,-100,-100,0,0,100,0.00,40.00,0,-999,0,0.05
2013-12-10,17,10,4,-100,-100,-100,0,0,100,0.00,40.00,0,-999,0,0.20
2013-12-11,22,7,-1,-100,-100,-100,0,0,100,0.00,40.00,0,-999,0,0.01
2013-12-26,27,13,5,-100,-100,-100,0,0,100,0.00,40.00,0,-999,0,0.00
2013-12-27,27,10,-1,-100,-100,-100,0,0,100,0.00,40.00,0,-999,0,0.00
2013-12-28,32,17,6,-100,-100,-100,0,0,100,0.00,40.00,0,-999,0,0.01
2013-12-29,23,12,-4,-100,-100,-100,0,0,100,0.00,40.00,0,-999,0,0.01
2013-12-30,29,22,19,-100,-100,-100,0,0,100,0.00,40.00,0,-999,0,0.07
2013-12-31,34,28,22,-100,-100,-100,0,0,100,0.00,40.00,0,-999,0,0.40
2014-1-1,30,21,7,-100,-100,-100,0,0,100,0.00,40.00,0,-999,0,0.08